This is the latest recevied weather packets stored in our database for station/object KH6DH-13. If no packets are shown the sender has not sent any weather packets the latest 10 day(s).
| Time | Temp. | Humidity | Pressure | Rain* | Wind** | Luminosity | Snow |
|---|---|---|---|---|---|---|---|
| 1777842257 | 26.67° C | - | - | 0 mm | 2.68 m/s, 104° | - | - |
| 1777841656 | 26.11° C | - | - | 0 mm | 1.34 m/s, 252° | - | - |
| 1777841055 | 26.67° C | - | - | 0 mm | 2.68 m/s, 42° | - | - |
| 1777840454 | 26.11° C | - | - | 0 mm | 2.24 m/s, 56° | - | - |
| 1777839853 | 25.56° C | - | - | 0 mm | 1.34 m/s, 28° | - | - |
| 1777839252 | 25° C | - | - | 0 mm | 1.79 m/s, 79° | - | - |
| 1777838651 | 25° C | - | - | 0 mm | 1.34 m/s, 24° | - | - |
| 1777838050 | 24.44° C | - | - | 0 mm | 1.34 m/s, 15° | - | - |
| 1777837449 | 24.44° C | - | - | 0 mm | 1.34 m/s, 86° | - | - |
| 1777836848 | 23.89° C | - | - | 0 mm | 0.45 m/s, 84° | - | - |
| 1777836247 | 23.89° C | - | - | 0 mm | 1.79 m/s, 69° | - | - |
| 1777835646 | 24.44° C | - | - | 0 mm | 1.34 m/s, 31° | - | - |
| 1777835038 | 24.44° C | - | - | 0 mm | 1.34 m/s, 108° | - | - |
| 1777834435 | 23.89° C | - | - | 0 mm | 1.79 m/s, 45° | - | - |
| 1777833834 | 23.89° C | - | - | 0 mm | 1.34 m/s, 108° | - | - |
| 1777833233 | 23.89° C | - | - | 0.25 mm | 0.89 m/s, 14° | - | - |
| 1777832632 | 23.33° C | - | - | 0.25 mm | 0.45 m/s, 59° | - | - |
| 1777832031 | 23.89° C | - | - | 0.25 mm | 1.34 m/s, 93° | - | - |
| 1777831430 | 22.78° C | - | - | 0.25 mm | 1.79 m/s, 56° | - | - |
| 1777830829 | 22.78° C | - | - | 0.25 mm | 0.89 m/s, 0° | - | - |
| 1777830228 | 22.78° C | - | - | 0.25 mm | 0.45 m/s, 309° | - | - |
| 1777829627 | 22.22° C | - | - | 0 mm | 2.24 m/s, 80° | - | - |
| 1777829026 | 22.22° C | - | - | 0 mm | 0.89 m/s, 86° | - | - |
| 1777828425 | 22.78° C | - | - | 0 mm | 0 m/s | - | - |
| 1777827824 | 22.78° C | - | - | 0 mm | 1.79 m/s, 32° | - | - |
* Rain latest hour (hover to see other rain measurements)
** Current wind speed in m/s (hover to see current wind gust speed)